�N����,����,�g�[���i�L�b�`���j���x,�g�[�����x,��g�[���i���ʏ��j���x,����
 2004/04/01, 0:00,19.3,41,13.5,15.5
 2004/04/01, 0:15,19.2,41,13.4,15.6
 2004/04/01, 0:30,19.3,40,13.3,15.6
 2004/04/01, 0:45,19.2,40,13.3,15.7
 2004/04/01, 1:00,19,40,13.2,15.7
 2004/04/01, 1:15,19,40,13.1,15.8
 2004/04/01, 1:30,18.9,40,13.1,15.8
 2004/04/01, 1:45,18.7,40,13,14.3
 2004/04/01, 2:00,18.6,40,13,14.3
 2004/04/01, 2:15,18.2,40,12.8,14.3
 2004/04/01, 2:30,17.7,40,12.7,14.4
 2004/04/01, 2:45,17.4,40,12.5,14.4
 2004/04/01, 3:00,17.1,40,12.4,14.5
 2004/04/01, 3:15,16.9,41,12.3,14.5
 2004/04/01, 3:30,16.8,40,12.1,14.5
 2004/04/01, 3:45,16.4,41,12,14.6
 2004/04/01, 4:00,16.2,40,11.7,14.6
 2004/04/01, 4:15,16,40,11.7,14.6
 2004/04/01, 4:30,15.9,40,11.5,14.6
 2004/04/01, 4:45,15.7,41,11.3,14.7
 2004/04/01, 5:00,15.7,41,11.2,14.7
 2004/04/01, 5:15,15.4,41,11,14.7
 2004/04/01, 5:30,15.4,42,10.8,14.7
 2004/04/01, 5:45,15.2,42,10.8,14.7
 2004/04/01, 6:00,15,42,10.6,14.8
 2004/04/01, 6:15,14.9,42,10.7,13.7
 2004/04/01, 6:30,16.7,41,11,13.1
 2004/04/01, 6:45,16.7,41,11.6,13.1
 2004/04/01, 7:00,16.9,40,11.3,13.1
 2004/04/01, 7:15,17.1,40,11.3,13.1
 2004/04/01, 7:30,17.1,40,11.6,13.2
 2004/04/01, 7:45,18.4,41,11.9,13.1
 2004/04/01, 8:00,21.2,34,12,13.2
 2004/04/01, 8:15,21.1,35,13,13.2
 2004/04/01, 8:30,21.8,33,13,13.3
 2004/04/01, 8:45,21.2,34,13,13.3
 2004/04/01, 9:00,19.4,35,12.8,13.4
 2004/04/01, 9:15,18.9,35,12.8,13.4
 2004/04/01, 9:30,18.5,36,13.1,13.5
 2004/04/01, 9:45,18.3,33,13.2,13.5
 2004/04/01,10:00,17.9,31,13.6,13.6
 2004/04/01,10:15,17.3,28,13.8,13.2
 2004/04/01,10:30,17.1,29,14,13.2
 2004/04/01,10:45,17.3,31,14.3,13.3
 2004/04/01,11:00,17.3,31,14.5,13.3
 2004/04/01,11:15,17.3,34,14.5,13.4
 2004/04/01,11:30,17.3,31,14.8,13.4
 2004/04/01,11:45,17.3,33,14.9,13.5
 2004/04/01,12:00,17.2,32,15.1,12.6
 2004/04/01,12:15,17.1,30,15.3,12.5
 2004/04/01,12:30,17.3,31,15.7,12.6
 2004/04/01,12:45,17.6,33,15.9,12.7
 2004/04/01,13:00,17.7,32,16.3,12.7
 2004/04/01,13:15,17.1,28,16.4,13
 2004/04/01,13:30,17.5,30,16.9,13.1
 2004/04/01,13:45,18.2,35,17.5,13.2
 2004/04/01,14:00,18.5,36,17.9,13.2
 2004/04/01,14:15,18.6,36,18.4,13.3
 2004/04/01,14:30,18.4,32,18.6,13.4
 2004/04/01,14:45,18.6,34,18.7,13.4
 2004/04/01,15:00,18.5,35,18.6,13.5
 2004/04/01,15:15,18.6,35,18.7,13.6
 2004/04/01,15:30,18.6,35,18.8,13.7
 2004/04/01,15:45,18.9,37,18.6,13.7
 2004/04/01,16:00,19.1,37,18.6,13.8
 2004/04/01,16:15,19,37,18.6,13.9
 2004/04/01,16:30,19,38,18.5,14
 2004/04/01,16:45,19.3,38,18.4,14
 2004/04/01,17:00,18.7,31,18.2,14.1
 2004/04/01,17:15,18.9,35,18.2,14.4
 2004/04/01,17:30,18.9,35,18.1,14.5
 2004/04/01,17:45,18.8,37,18,14.5
 2004/04/01,18:00,18.8,37,18.2,14.6
 2004/04/01,18:15,18.7,38,18.7,14.6
 2004/04/01,18:30,19,45,18.9,14.7
 2004/04/01,18:45,18.9,42,18.4,14.7
 2004/04/01,19:00,18.9,41,19.4,14.8
 2004/04/01,19:15,18.8,40,19.2,14.9
 2004/04/01,19:30,19,45,18.6,14.9
 2004/04/01,19:45,19.3,43,18.3,15
 2004/04/01,20:00,19.2,42,18,15.1
 2004/04/01,20:15,19.1,41,17.9,15.1
 2004/04/01,20:30,19,42,18.3,15.2
 2004/04/01,20:45,19.3,45,17.8,15.3
 2004/04/01,21:00,19.3,43,17.5,15.3
 2004/04/01,21:15,19,42,18.3,14.3
 2004/04/01,21:30,18.9,42,17.5,14.4
 2004/04/01,21:45,19.8,41,17.2,14.5
 2004/04/01,22:00,19.7,40,16.8,14.5
 2004/04/01,22:15,19.7,41,16.9,14.6
 2004/04/01,22:30,19.7,42,16.7,14.6
 2004/04/01,22:45,19.8,43,16.4,14.7
 2004/04/01,23:00,19.9,43,16.5,14.8
 2004/04/01,23:15,19.8,43,16.4,14.8
 2004/04/01,23:30,19.7,43,16.3,14.7
 2004/04/01,23:45,19.3,44,16.3,14.7
 2004/04/02, 0:00,19.1,44,16.1,14.8
 2004/04/02, 0:15,18.8,43,16,14.8
 2004/04/02, 0:30,18.6,43,15.9,14.9
 2004/04/02, 0:45,18.4,43,15.7,14.9
 2004/04/02, 1:00,18.2,44,15.5,15
 2004/04/02, 1:15,18.1,45,15.3,14.5
 2004/04/02, 1:30,18,45,15.2,14.6
 2004/04/02, 1:45,17.8,45,15.1,14.6
 2004/04/02, 2:00,17.7,45,14.9,14.7
 2004/04/02, 2:15,17.7,46,14.9,14.7
 2004/04/02, 2:30,17.6,46,14.8,14.7
 2004/04/02, 2:45,17.5,46,14.7,14.8
 2004/04/02, 3:00,17.3,46,14.6,14.8
 2004/04/02, 3:15,17.3,46,14.6,14.9
 2004/04/02, 3:30,17.2,47,14.5,14.9
 2004/04/02, 3:45,17.1,46,14.5,15
 2004/04/02, 4:00,17,46,14.5,15
 2004/04/02, 4:15,16.9,46,14.4,15.1
 2004/04/02, 4:30,16.9,47,14.4,15.1
 2004/04/02, 4:45,16.9,47,14.3,15.2
 2004/04/02, 5:00,16.8,47,14.3,15.2
 2004/04/02, 5:15,16.8,47,14.3,15.2
 2004/04/02, 5:30,16.8,47,14.3,15.3
 2004/04/02, 5:45,16.8,48,14.1,15.3
 2004/04/02, 6:00,16.7,48,14,15.4
 2004/04/02, 6:15,18.1,44,14,14.4
 2004/04/02, 6:30,18.5,44,14.5,14.5
 2004/04/02, 6:45,19,42,14.3,14.5
 2004/04/02, 7:00,18.5,46,14.3,14.5
 2004/04/02, 7:15,18.6,45,14.3,14.6
 2004/04/02, 7:30,18.6,45,14.6,13.9
 2004/04/02, 7:45,18.5,46,15.1,14
 2004/04/02, 8:00,18.9,45,15,14
 2004/04/02, 8:15,19.1,45,15.1,14.1
 2004/04/02, 8:30,19.5,44,15.4,14.1
 2004/04/02, 8:45,19.6,45,15.6,14.2
 2004/04/02, 9:00,19.2,46,15.9,14.2
 2004/04/02, 9:15,19,47,16,14.3
 2004/04/02, 9:30,18.9,47,16.2,14.3
 2004/04/02, 9:45,18.8,47,16.1,14.4
 2004/04/02,10:00,18.6,48,16.1,14.4
 2004/04/02,10:15,18.7,48,16.4,14.5
 2004/04/02,10:30,18.9,47,16.8,14.5
 2004/04/02,10:45,18.8,46,16.8,14.6
 2004/04/02,11:00,19.2,46,17,14.6
 2004/04/02,11:15,19,44,17.1,14.7
 2004/04/02,11:30,19.2,44,17.4,14.7
 2004/04/02,11:45,19.2,44,17.6,14.8
 2004/04/02,12:00,19,44,17.5,14.8
 2004/04/02,12:15,18.9,43,17.4,14.9
 2004/04/02,12:30,18.8,43,17.6,14.9
 2004/04/02,12:45,18.7,42,17.6,15
 2004/04/02,13:00,18.8,42,17.9,15.1
 2004/04/02,13:15,18.8,42,18,15.2
 2004/04/02,13:30,18.8,41,18.8,15.2
 2004/04/02,13:45,18.9,40,19,15.3
 2004/04/02,14:00,19.1,38,19.3,15.4
 2004/04/02,14:15,19,38,19.7,15.5
 2004/04/02,14:30,19.2,38,19.7,15.5
 2004/04/02,14:45,19.1,39,19.4,15.6
 2004/04/02,15:00,19.3,37,19.7,15.7
 2004/04/02,15:15,19.4,37,20.1,15.8
 2004/04/02,15:30,19.4,37,19.7,15.9
 2004/04/02,15:45,19.4,37,19.7,16
 2004/04/02,16:00,19.4,37,19.2,16
 2004/04/02,16:15,19.5,36,19.1,16.1
 2004/04/02,16:30,19.6,37,19.1,15.9
 2004/04/02,16:45,19.4,36,18.9,15.8
 2004/04/02,17:00,19.6,36,19.3,15.9
 2004/04/02,17:15,19.6,37,19.4,16
 2004/04/02,17:30,19.5,38,19.3,16.1
 2004/04/02,17:45,19.3,38,19.3,16.1
 2004/04/02,18:00,19.2,38,19.2,16.2
 2004/04/02,18:15,19,40,19.6,16.3
 2004/04/02,18:30,19,41,19.1,16.4
 2004/04/02,18:45,18.9,40,18.6,16.4
 2004/04/02,19:00,19.2,43,18.5,16.5
 2004/04/02,19:15,19.3,45,18.3,16.6
 2004/04/02,19:30,19.3,43,18.1,16.6
 2004/04/02,19:45,19.4,45,17.7,16.7
 2004/04/02,20:00,19.6,43,17.4,16.8
 2004/04/02,20:15,19.8,44,17.1,16.8
 2004/04/02,20:30,19.6,42,17,16.9
 2004/04/02,20:45,19.3,40,16.8,16.9
 2004/04/02,21:00,19.3,38,16.7,17
 2004/04/02,21:15,19.3,40,17.1,17
 2004/04/02,21:30,19.2,40,17.4,17.1
 2004/04/02,21:45,19,39,17.2,17.1
 2004/04/02,22:00,18.9,39,16.3,17.2
 2004/04/02,22:15,19.6,39,16.3,17.2
 2004/04/02,22:30,19.5,40,15.9,17.3
 2004/04/02,22:45,19.4,40,15.5,17.3
 2004/04/02,23:00,19.4,40,15.4,17.3
 2004/04/02,23:15,19.4,39,15.2,17.4
 2004/04/02,23:30,19.4,39,15.2,17.4
 2004/04/02,23:45,19.4,39,15.1,17.4
 2004/04/03, 0:00,19.3,39,15.2,17.5
 2004/04/03, 0:15,19.3,39,15.1,17.5
 2004/04/03, 0:30,19.2,39,14.9,15.5
 2004/04/03, 0:45,19.2,39,14.8,15.5
 2004/04/03, 1:00,19.1,39,14.6,15.5
 2004/04/03, 1:15,19.1,39,14.6,15.6
 2004/04/03, 1:30,19,39,14.4,15.6
 2004/04/03, 1:45,19,39,14.3,15.7
 2004/04/03, 2:00,19,38,14.3,15.7
 2004/04/03, 2:15,18.9,38,14.3,15.7
 2004/04/03, 2:30,18.7,38,14.2,15.8
 2004/04/03, 2:45,18.1,39,14.1,15.8
 2004/04/03, 3:00,17.9,38,14,15.9
 2004/04/03, 3:15,17.6,38,13.8,15.9
 2004/04/03, 3:30,17.3,38,13.6,15.9
 2004/04/03, 3:45,17.1,38,13.5,16
 2004/04/03, 4:00,16.9,38,13.4,16
 2004/04/03, 4:15,16.8,38,13.3,16
 2004/04/03, 4:30,16.6,39,13.3,16
 2004/04/03, 4:45,16.5,39,13.2,16.1
 2004/04/03, 5:00,16.4,39,13.1,16.1
 2004/04/03, 5:15,16.3,39,13.1,16.1
 2004/04/03, 5:30,16.3,40,13,16.1
 2004/04/03, 5:45,16.1,40,13,16.1
 2004/04/03, 6:00,16,40,12.9,16.1
 2004/04/03, 6:15,16,40,12.9,16.2
 2004/04/03, 6:30,15.9,40,12.8,16.2
 2004/04/03, 6:45,15.8,41,12.8,16.2
 2004/04/03, 7:00,15.8,40,13.2,16.2
 2004/04/03, 7:15,15.9,41,13.3,16.2
 2004/04/03, 7:30,16.4,43,13.5,13.4
 2004/04/03, 7:45,16.7,43,13.5,13.4
 2004/04/03, 8:00,16.5,43,13.5,13.4
 2004/04/03, 8:15,16.5,43,13.3,13.5
 2004/04/03, 8:30,16.5,42,13.3,13.5
 2004/04/03, 8:45,16.5,42,13.4,13.5
 2004/04/03, 9:00,16.7,42,13.7,13.6
 2004/04/03, 9:15,16.7,42,13.5,13.6
 2004/04/03, 9:30,16.8,44,13.7,13.6
 2004/04/03, 9:45,18.1,42,13.7,13.5
 2004/04/03,10:00,19.2,40,14,13.6
 2004/04/03,10:15,19.6,39,14,13.6
 2004/04/03,10:30,20.2,38,14.4,13.7
 2004/04/03,10:45,20.4,37,14.6,13.7
 2004/04/03,11:00,20.6,37,14.6,13.8
 2004/04/03,11:15,20.7,36,14.8,13.8
 2004/04/03,11:30,19.6,37,15.1,13.6
 2004/04/03,11:45,19.3,37,15.1,13.8
 2004/04/03,12:00,18,37,15.4,13.8
 2004/04/03,12:15,18.4,37,15.3,13.9
 2004/04/03,12:30,18.5,38,15.5,13.9
 2004/04/03,12:45,18.3,37,15.8,14
 2004/04/03,13:00,18.2,37,16,14
 2004/04/03,13:15,18.3,39,16.4,14.1
 2004/04/03,13:30,18.4,37,16.5,14.2
 2004/04/03,13:45,18.2,37,16.5,14.2
 2004/04/03,14:00,18.2,37,16.8,14.3
 2004/04/03,14:15,18.4,37,17.2,14.4
 2004/04/03,14:30,18.5,38,17.4,14.4
 2004/04/03,14:45,18.4,38,17.3,14.5
 2004/04/03,15:00,18.3,39,17.4,14.6
 2004/04/03,15:15,18.4,39,17.4,14.6
 2004/04/03,15:30,18.4,39,17.4,14.7
 2004/04/03,15:45,18.4,40,17.3,14.8
 2004/04/03,16:00,18.4,40,17.2,14.8
 2004/04/03,16:15,18.2,40,17.1,14.8
 2004/04/03,16:30,18.3,40,17.1,15.2
 2004/04/03,16:45,18.1,40,17,14.7
 2004/04/03,17:00,18,41,17.2,14.8
 2004/04/03,17:15,18,41,18.2,14.8
 2004/04/03,17:30,18.1,42,18.5,14.9
 2004/04/03,17:45,18.1,42,18,14.9
 2004/04/03,18:00,18.2,43,17.9,15
 2004/04/03,18:15,18.6,45,18,15.1
 2004/04/03,18:30,18.7,45,17.9,15.1
 2004/04/03,18:45,-9.9,-9.9,-9.9,15.2
 2004/04/03,19:00,-9.9,-9.9,-9.9,15.3
 2004/04/03,19:15,-9.9,-9.9,-9.9,15.3
 2004/04/03,19:30,-9.9,-9.9,-9.9,15.4
 2004/04/03,19:45,-9.9,-9.9,-9.9,15.5
 2004/04/03,20:00,-9.9,-9.9,-9.9,15.5
 2004/04/03,20:15,-9.9,-9.9,-9.9,15.5
 2004/04/03,20:30,-9.9,-9.9,-9.9,15.6
 2004/04/03,20:45,-9.9,-9.9,-9.9,15.6
 2004/04/03,21:00,-9.9,-9.9,-9.9,15.7
 2004/04/03,21:15,-9.9,-9.9,-9.9,15.7
 2004/04/03,21:30,-9.9,-9.9,-9.9,15.8
 2004/04/03,21:45,-9.9,-9.9,-9.9,15.8
 2004/04/03,22:00,-9.9,-9.9,-9.9,15.9
 2004/04/03,22:15,-9.9,-9.9,-9.9,15.9
 2004/04/03,22:30,-9.9,-9.9,-9.9,15.9
 2004/04/03,22:45,-9.9,-9.9,-9.9,16
 2004/04/03,23:00,-9.9,-9.9,-9.9,16
 2004/04/03,23:15,-9.9,-9.9,-9.9,16.1
 2004/04/03,23:30,-9.9,-9.9,-9.9,16.1
 2004/04/03,23:45,-9.9,-9.9,-9.9,16.1
 2004/04/04, 0:00,-9.9,-9.9,-9.9,16.2
 2004/04/04, 0:15,-9.9,-9.9,-9.9,16.2
 2004/04/04, 0:30,-9.9,-9.9,-9.9,16.2
 2004/04/04, 0:45,-9.9,-9.9,-9.9,16.3
 2004/04/04, 1:00,-9.9,-9.9,-9.9,16.3
 2004/04/04, 1:15,-9.9,-9.9,-9.9,16.3
 2004/04/04, 1:30,-9.9,-9.9,-9.9,16.4
 2004/04/04, 1:45,-9.9,-9.9,-9.9,16.4
 2004/04/04, 2:00,-9.9,-9.9,-9.9,16.4
 2004/04/04, 2:15,-9.9,-9.9,-9.9,16.4
 2004/04/04, 2:30,-9.9,-9.9,-9.9,16.4
 2004/04/04, 2:45,-9.9,-9.9,-9.9,16.4
 2004/04/04, 3:00,-9.9,-9.9,-9.9,16.4
 2004/04/04, 3:15,-9.9,-9.9,-9.9,16.5
 2004/04/04, 3:30,-9.9,-9.9,-9.9,16.5
 2004/04/04, 3:45,-9.9,-9.9,-9.9,16.5
 2004/04/04, 4:00,-9.9,-9.9,-9.9,16.5
 2004/04/04, 4:15,-9.9,-9.9,-9.9,16.5
 2004/04/04, 4:30,-9.9,-9.9,-9.9,14.3
 2004/04/04, 4:45,-9.9,-9.9,-9.9,14.3
 2004/04/04, 5:00,-9.9,-9.9,-9.9,14.3
 2004/04/04, 5:15,-9.9,-9.9,-9.9,14.3
 2004/04/04, 5:30,-9.9,-9.9,-9.9,14.3
 2004/04/04, 5:45,-9.9,-9.9,-9.9,14.3
 2004/04/04, 6:00,-9.9,-9.9,-9.9,14.3
 2004/04/04, 6:15,-9.9,-9.9,-9.9,14.4
 2004/04/04, 6:30,-9.9,-9.9,-9.9,14.4
 2004/04/04, 6:45,-9.9,-9.9,-9.9,14.4
 2004/04/04, 7:00,-9.9,-9.9,-9.9,14.4
 2004/04/04, 7:15,-9.9,-9.9,-9.9,14.4
 2004/04/04, 7:30,-9.9,-9.9,-9.9,14.4
 2004/04/04, 7:45,-9.9,-9.9,-9.9,14.5
 2004/04/04, 8:00,-9.9,-9.9,-9.9,14.5
 2004/04/04, 8:15,-9.9,-9.9,-9.9,14.5
 2004/04/04, 8:30,-9.9,-9.9,-9.9,14.5
 2004/04/04, 8:45,-9.9,-9.9,-9.9,12.9
 2004/04/04, 9:00,-9.9,-9.9,-9.9,12.9
 2004/04/04, 9:15,-9.9,-9.9,-9.9,13
 2004/04/04, 9:30,-9.9,-9.9,-9.9,13
 2004/04/04, 9:45,-9.9,-9.9,-9.9,13.1
 2004/04/04,10:00,-9.9,-9.9,-9.9,12.8
 2004/04/04,10:15,-9.9,-9.9,-9.9,12.8
 2004/04/04,10:30,-9.9,-9.9,-9.9,12.9
 2004/04/04,10:45,-9.9,-9.9,-9.9,12.9
 2004/04/04,11:00,-9.9,-9.9,-9.9,12.9
 2004/04/04,11:15,-9.9,-9.9,-9.9,13
 2004/04/04,11:30,-9.9,-9.9,-9.9,12.5
 2004/04/04,11:45,-9.9,-9.9,-9.9,12.5
 2004/04/04,12:00,-9.9,-9.9,-9.9,12.6
 2004/04/04,12:15,-9.9,-9.9,-9.9,12.6
 2004/04/04,12:30,-9.9,-9.9,-9.9,12.6
 2004/04/04,12:45,-9.9,-9.9,-9.9,12.7
 2004/04/04,13:00,-9.9,-9.9,-9.9,12.7
 2004/04/04,13:15,-9.9,-9.9,-9.9,12.8
 2004/04/04,13:30,-9.9,-9.9,-9.9,12.8
 2004/04/04,13:45,-9.9,-9.9,-9.9,12.8
 2004/04/04,14:00,-9.9,-9.9,-9.9,12.9
 2004/04/04,14:15,-9.9,-9.9,-9.9,12.9
 2004/04/04,14:30,-9.9,-9.9,-9.9,12.9
 2004/04/04,14:45,-9.9,-9.9,-9.9,13
 2004/04/04,15:00,-9.9,-9.9,-9.9,13
 2004/04/04,15:15,-9.9,-9.9,-9.9,13.1
 2004/04/04,15:30,-9.9,-9.9,-9.9,13.1
 2004/04/04,15:45,-9.9,-9.9,-9.9,13.1
 2004/04/04,16:00,-9.9,-9.9,-9.9,13.2
 2004/04/04,16:15,-9.9,-9.9,-9.9,13.2
 2004/04/04,16:30,-9.9,-9.9,-9.9,13.2
 2004/04/04,16:45,-9.9,-9.9,-9.9,13.3
 2004/04/04,17:00,-9.9,-9.9,-9.9,13.3
 2004/04/04,17:15,-9.9,-9.9,-9.9,13.3
 2004/04/04,17:30,-9.9,-9.9,-9.9,13.4
 2004/04/04,17:45,-9.9,-9.9,-9.9,13.4
 2004/04/04,18:00,-9.9,-9.9,-9.9,13.4
 2004/04/04,18:15,-9.9,-9.9,-9.9,13.5
 2004/04/04,18:30,-9.9,-9.9,-9.9,13.5
 2004/04/04,18:45,-9.9,-9.9,-9.9,13.5
 2004/04/04,19:00,-9.9,-9.9,-9.9,13.5
 2004/04/04,19:15,-9.9,-9.9,-9.9,13.5
 2004/04/04,19:30,-9.9,-9.9,-9.9,13.6
 2004/04/04,19:45,-9.9,-9.9,-9.9,13.6
 2004/04/04,20:00,-9.9,-9.9,-9.9,13.6
 2004/04/04,20:15,-9.9,-9.9,-9.9,13.6
 2004/04/04,20:30,-9.9,-9.9,-9.9,13.6
 2004/04/04,20:45,-9.9,-9.9,-9.9,13.7
 2004/04/04,21:00,-9.9,-9.9,-9.9,13.7
 2004/04/04,21:15,-9.9,-9.9,-9.9,13.7
 2004/04/04,21:30,-9.9,-9.9,-9.9,13.7
 2004/04/04,21:45,-9.9,-9.9,-9.9,13.7
 2004/04/04,22:00,-9.9,-9.9,-9.9,13.7
 2004/04/04,22:15,-9.9,-9.9,-9.9,13.7
 2004/04/04,22:30,-9.9,-9.9,-9.9,13.7
 2004/04/04,22:45,-9.9,-9.9,-9.9,13.7
 2004/04/04,23:00,-9.9,-9.9,-9.9,13.7
 2004/04/04,23:15,-9.9,-9.9,-9.9,13.7
 2004/04/04,23:30,-9.9,-9.9,-9.9,13.7
 2004/04/04,23:45,-9.9,-9.9,-9.9,13.7
 2004/04/05, 0:00,-9.9,-9.9,-9.9,13.7
 2004/04/05, 0:15,-9.9,-9.9,-9.9,13.7
 2004/04/05, 0:30,-9.9,-9.9,-9.9,13.7
 2004/04/05, 0:45,-9.9,-9.9,-9.9,13.7
 2004/04/05, 1:00,-9.9,-9.9,-9.9,13.7
 2004/04/05, 1:15,-9.9,-9.9,-9.9,13.7
 2004/04/05, 1:30,-9.9,-9.9,-9.9,13.7
 2004/04/05, 1:45,-9.9,-9.9,-9.9,13.7
 2004/04/05, 2:00,-9.9,-9.9,-9.9,13.7
 2004/04/05, 2:15,-9.9,-9.9,-9.9,13.7
 2004/04/05, 2:30,-9.9,-9.9,-9.9,12.2
 2004/04/05, 2:45,-9.9,-9.9,-9.9,12.2
 2004/04/05, 3:00,-9.9,-9.9,-9.9,12.3
 2004/04/05, 3:15,-9.9,-9.9,-9.9,12.3
 2004/04/05, 3:30,-9.9,-9.9,-9.9,12.3
 2004/04/05, 3:45,-9.9,-9.9,-9.9,12.3
 2004/04/05, 4:00,-9.9,-9.9,-9.9,12.3
 2004/04/05, 4:15,-9.9,-9.9,-9.9,12.3
 2004/04/05, 4:30,-9.9,-9.9,-9.9,12.3
 2004/04/05, 4:45,-9.9,-9.9,-9.9,12.3
 2004/04/05, 5:00,-9.9,-9.9,-9.9,12.3
 2004/04/05, 5:15,-9.9,-9.9,-9.9,12.3
 2004/04/05, 5:30,-9.9,-9.9,-9.9,12.3
 2004/04/05, 5:45,-9.9,-9.9,-9.9,12.3
 2004/04/05, 6:00,-9.9,-9.9,-9.9,11
 2004/04/05, 6:15,-9.9,-9.9,-9.9,11
 2004/04/05, 6:30,-9.9,-9.9,-9.9,11
 2004/04/05, 6:45,-9.9,-9.9,-9.9,11
 2004/04/05, 7:00,-9.9,-9.9,-9.9,11
 2004/04/05, 7:15,-9.9,-9.9,-9.9,11
 2004/04/05, 7:30,-9.9,-9.9,-9.9,11
 2004/04/05, 7:45,-9.9,-9.9,-9.9,11.1
 2004/04/05, 8:00,-9.9,-9.9,-9.9,11.2
 2004/04/05, 8:15,-9.9,-9.9,-9.9,11.2
 2004/04/05, 8:30,-9.9,-9.9,-9.9,11.3
 2004/04/05, 8:45,-9.9,-9.9,-9.9,11.3
 2004/04/05, 9:00,-9.9,-9.9,-9.9,11.4
 2004/04/05, 9:15,-9.9,-9.9,-9.9,11.4
 2004/04/05, 9:30,-9.9,-9.9,-9.9,11.5
 2004/04/05, 9:45,-9.9,-9.9,-9.9,11.5
 2004/04/05,10:00,-9.9,-9.9,-9.9,11.7
 2004/04/05,10:15,-9.9,-9.9,-9.9,11.8
 2004/04/05,10:30,-9.9,-9.9,-9.9,11.8
 2004/04/05,10:45,-9.9,-9.9,-9.9,11.9
 2004/04/05,11:00,-9.9,-9.9,-9.9,12
 2004/04/05,11:15,-9.9,-9.9,-9.9,12
 2004/04/05,11:30,-9.9,-9.9,-9.9,11.9
 2004/04/05,11:45,-9.9,-9.9,-9.9,12
 2004/04/05,12:00,-9.9,-9.9,-9.9,12
 2004/04/05,12:15,-9.9,-9.9,-9.9,12.1
 2004/04/05,12:30,-9.9,-9.9,-9.9,12.2
 2004/04/05,12:45,-9.9,-9.9,-9.9,12.2
 2004/04/05,13:00,-9.9,-9.9,-9.9,12.3
 2004/04/05,13:15,-9.9,-9.9,-9.9,12.4
 2004/04/05,13:30,-9.9,-9.9,-9.9,12.4
 2004/04/05,13:45,-9.9,-9.9,-9.9,12.5
 2004/04/05,14:00,-9.9,-9.9,-9.9,12.6
 2004/04/05,14:15,-9.9,-9.9,-9.9,12.6
 2004/04/05,14:30,-9.9,-9.9,-9.9,12.7
 2004/04/05,14:45,-9.9,-9.9,-9.9,12.8
 2004/04/05,15:00,-9.9,-9.9,-9.9,12.9
 2004/04/05,15:15,-9.9,-9.9,-9.9,12.9
 2004/04/05,15:30,-9.9,-9.9,-9.9,13
 2004/04/05,15:45,-9.9,-9.9,-9.9,13.1
 2004/04/05,16:00,-9.9,-9.9,-9.9,13.2
 2004/04/05,16:15,-9.9,-9.9,-9.9,13.2
 2004/04/05,16:30,-9.9,-9.9,-9.9,13.3
 2004/04/05,16:45,-9.9,-9.9,-9.9,13.4
 2004/04/05,17:00,-9.9,-9.9,-9.9,13.5
 2004/04/05,17:15,-9.9,-9.9,-9.9,13.6
 2004/04/05,17:30,-9.9,-9.9,-9.9,13.7
 2004/04/05,17:45,-9.9,-9.9,-9.9,13.7
 2004/04/05,18:00,-9.9,-9.9,-9.9,13.8
 2004/04/05,18:15,-9.9,-9.9,-9.9,13.9
 2004/04/05,18:30,-9.9,-9.9,-9.9,14
 2004/04/05,18:45,-9.9,-9.9,-9.9,13.8
 2004/04/05,19:00,-9.9,-9.9,-9.9,13.8
 2004/04/05,19:15,-9.9,-9.9,-9.9,13.9
 2004/04/05,19:30,-9.9,-9.9,-9.9,13.9
 2004/04/05,19:45,-9.9,-9.9,-9.9,14
 2004/04/05,20:00,-9.9,-9.9,-9.9,14.1
 2004/04/05,20:15,-9.9,-9.9,-9.9,14.2
 2004/04/05,20:30,-9.9,-9.9,-9.9,14.2
 2004/04/05,20:45,-9.9,-9.9,-9.9,14
 2004/04/05,21:00,-9.9,-9.9,-9.9,14
 2004/04/05,21:15,-9.9,-9.9,-9.9,14
 2004/04/05,21:30,-9.9,-9.9,-9.9,14.1
 2004/04/05,21:45,-9.9,-9.9,-9.9,14.1
 2004/04/05,22:00,-9.9,-9.9,-9.9,14.2
 2004/04/05,22:15,-9.9,-9.9,-9.9,14.2
 2004/04/05,22:30,-9.9,-9.9,-9.9,14.3
 2004/04/05,22:45,-9.9,-9.9,-9.9,14.4
 2004/04/05,23:00,-9.9,-9.9,-9.9,14.4
 2004/04/05,23:15,-9.9,-9.9,-9.9,14.5
 2004/04/05,23:30,-9.9,-9.9,-9.9,14.5
 2004/04/05,23:45,-9.9,-9.9,-9.9,14.6
 2004/04/06, 0:00,-9.9,-9.9,-9.9,14.6
 2004/04/06, 0:15,-9.9,-9.9,-9.9,14.7
 2004/04/06, 0:30,-9.9,-9.9,-9.9,14.7
 2004/04/06, 0:45,-9.9,-9.9,-9.9,14.8
 2004/04/06, 1:00,-9.9,-9.9,-9.9,14.8
 2004/04/06, 1:15,-9.9,-9.9,-9.9,14.8
 2004/04/06, 1:30,-9.9,-9.9,-9.9,14.9
 2004/04/06, 1:45,-9.9,-9.9,-9.9,14.9
 2004/04/06, 2:00,-9.9,-9.9,-9.9,15
 2004/04/06, 2:15,-9.9,-9.9,-9.9,15
 2004/04/06, 2:30,-9.9,-9.9,-9.9,15
 2004/04/06, 2:45,-9.9,-9.9,-9.9,15
 2004/04/06, 3:00,-9.9,-9.9,-9.9,15.1
 2004/04/06, 3:15,-9.9,-9.9,-9.9,15.1
 2004/04/06, 3:30,-9.9,-9.9,-9.9,15.1
 2004/04/06, 3:45,-9.9,-9.9,-9.9,15.2
 2004/04/06, 4:00,-9.9,-9.9,-9.9,15.2
 2004/04/06, 4:15,-9.9,-9.9,-9.9,15.2
 2004/04/06, 4:30,-9.9,-9.9,-9.9,15.2
 2004/04/06, 4:45,-9.9,-9.9,-9.9,15.2
 2004/04/06, 5:00,-9.9,-9.9,-9.9,15.2
 2004/04/06, 5:15,-9.9,-9.9,-9.9,15.2
 2004/04/06, 5:30,-9.9,-9.9,-9.9,15.2
 2004/04/06, 5:45,-9.9,-9.9,-9.9,15.2
 2004/04/06, 6:00,-9.9,-9.9,-9.9,13.4
 2004/04/06, 6:15,-9.9,-9.9,-9.9,12.9
 2004/04/06, 6:30,-9.9,-9.9,-9.9,12.9
 2004/04/06, 6:45,-9.9,-9.9,-9.9,12.9
 2004/04/06, 7:00,-9.9,-9.9,-9.9,13
 2004/04/06, 7:15,-9.9,-9.9,-9.9,13
 2004/04/06, 7:30,-9.9,-9.9,-9.9,13
 2004/04/06, 7:45,-9.9,-9.9,-9.9,13.1
 2004/04/06, 8:00,-9.9,-9.9,-9.9,13.1
 2004/04/06, 8:15,-9.9,-9.9,-9.9,13.1
 2004/04/06, 8:30,-9.9,-9.9,-9.9,13.1
 2004/04/06, 8:45,-9.9,-9.9,-9.9,12.8
 2004/04/06, 9:00,-9.9,-9.9,-9.9,12.7
 2004/04/06, 9:15,-9.9,-9.9,-9.9,12.8
 2004/04/06, 9:30,-9.9,-9.9,-9.9,12.8
 2004/04/06, 9:45,-9.9,-9.9,-9.9,12.8
 2004/04/06,10:00,-9.9,-9.9,-9.9,12.7
 2004/04/06,10:15,-9.9,-9.9,-9.9,12.8
 2004/04/06,10:30,-9.9,-9.9,-9.9,12.9
 2004/04/06,10:45,-9.9,-9.9,-9.9,13.1
 2004/04/06,11:00,-9.9,-9.9,-9.9,13.2
 2004/04/06,11:15,-9.9,-9.9,-9.9,13.4
 2004/04/06,11:30,-9.9,-9.9,-9.9,13.5
 2004/04/06,11:45,-9.9,-9.9,-9.9,13.7
 2004/04/06,12:00,-9.9,-9.9,-9.9,13.8
 2004/04/06,12:15,-9.9,-9.9,-9.9,14
 2004/04/06,12:30,-9.9,-9.9,-9.9,14.1
 2004/04/06,12:45,-9.9,-9.9,-9.9,14.2
 2004/04/06,13:00,-9.9,-9.9,-9.9,14.4
 2004/04/06,13:15,-9.9,-9.9,-9.9,14.5
 2004/04/06,13:30,-9.9,-9.9,-9.9,14.6
 2004/04/06,13:45,-9.9,-9.9,-9.9,14.7
 2004/04/06,14:00,-9.9,-9.9,-9.9,14.8
 2004/04/06,14:15,-9.9,-9.9,-9.9,14.7
 2004/04/06,14:30,-9.9,-9.9,-9.9,14.3
 2004/04/06,14:45,-9.9,-9.9,-9.9,14.3
 2004/04/06,15:00,-9.9,-9.9,-9.9,14.4
 2004/04/06,15:15,-9.9,-9.9,-9.9,14.4
 2004/04/06,15:30,-9.9,-9.9,-9.9,14.5
 2004/04/06,15:45,-9.9,-9.9,-9.9,14.6
 2004/04/06,16:00,-9.9,-9.9,-9.9,14.6
 2004/04/06,16:15,-9.9,-9.9,-9.9,14.7
 2004/04/06,16:30,-9.9,-9.9,-9.9,14.8
 2004/04/06,16:45,-9.9,-9.9,-9.9,14.8
 2004/04/06,17:00,-9.9,-9.9,-9.9,14.9
 2004/04/06,17:15,-9.9,-9.9,-9.9,15
 2004/04/06,17:30,-9.9,-9.9,-9.9,15
 2004/04/06,17:45,-9.9,-9.9,-9.9,14.1
 2004/04/06,18:00,-9.9,-9.9,-9.9,14.2
 2004/04/06,18:15,-9.9,-9.9,-9.9,14.3
 2004/04/06,18:30,-9.9,-9.9,-9.9,14.4
 2004/04/06,18:45,-9.9,-9.9,-9.9,14.5
 2004/04/06,19:00,-9.9,-9.9,-9.9,14.5
 2004/04/06,19:15,-9.9,-9.9,-9.9,14.6
 2004/04/06,19:30,-9.9,-9.9,-9.9,14.7
 2004/04/06,19:45,-9.9,-9.9,-9.9,14.8
 2004/04/06,20:00,-9.9,-9.9,-9.9,14.8
 2004/04/06,20:15,-9.9,-9.9,-9.9,15
 2004/04/06,20:30,-9.9,-9.9,-9.9,15.1
 2004/04/06,20:45,-9.9,-9.9,-9.9,15.1
 2004/04/06,21:00,-9.9,-9.9,-9.9,15.2
 2004/04/06,21:15,-9.9,-9.9,-9.9,15.3
 2004/04/06,21:30,-9.9,-9.9,-9.9,15.4
 2004/04/06,21:45,-9.9,-9.9,-9.9,15.4
 2004/04/06,22:00,-9.9,-9.9,-9.9,15.5
 2004/04/06,22:15,-9.9,-9.9,-9.9,15.6
 2004/04/06,22:30,-9.9,-9.9,-9.9,15.6
 2004/04/06,22:45,-9.9,-9.9,-9.9,15.7
 2004/04/06,23:00,-9.9,-9.9,-9.9,15.8
 2004/04/06,23:15,-9.9,-9.9,-9.9,15.8
 2004/04/06,23:30,-9.9,-9.9,-9.9,15.9
 2004/04/06,23:45,-9.9,-9.9,-9.9,16
 2004/04/07, 0:00,-9.9,-9.9,-9.9,14.5
 2004/04/07, 0:15,-9.9,-9.9,-9.9,14.5
 2004/04/07, 0:30,-9.9,-9.9,-9.9,14.6
 2004/04/07, 0:45,-9.9,-9.9,-9.9,14.7
 2004/04/07, 1:00,-9.9,-9.9,-9.9,14.7
 2004/04/07, 1:15,-9.9,-9.9,-9.9,14.8
 2004/04/07, 1:30,-9.9,-9.9,-9.9,14.9
 2004/04/07, 1:45,-9.9,-9.9,-9.9,14.9
 2004/04/07, 2:00,-9.9,-9.9,-9.9,15
 2004/04/07, 2:15,-9.9,-9.9,-9.9,15
 2004/04/07, 2:30,-9.9,-9.9,-9.9,15.1
 2004/04/07, 2:45,-9.9,-9.9,-9.9,15.2
 2004/04/07, 3:00,-9.9,-9.9,-9.9,15.3
 2004/04/07, 3:15,-9.9,-9.9,-9.9,15.3
 2004/04/07, 3:30,-9.9,-9.9,-9.9,15.4
 2004/04/07, 3:45,-9.9,-9.9,-9.9,15.4
 2004/04/07, 4:00,-9.9,-9.9,-9.9,15.5
 2004/04/07, 4:15,-9.9,-9.9,-9.9,15.5
 2004/04/07, 4:30,-9.9,-9.9,-9.9,15.6
 2004/04/07, 4:45,-9.9,-9.9,-9.9,15.7
 2004/04/07, 5:00,-9.9,-9.9,-9.9,15.7
 2004/04/07, 5:15,-9.9,-9.9,-9.9,15.7
 2004/04/07, 5:30,-9.9,-9.9,-9.9,15.8
 2004/04/07, 5:45,-9.9,-9.9,-9.9,15.8
 2004/04/07, 6:00,-9.9,-9.9,-9.9,14.6
 2004/04/07, 6:15,-9.9,-9.9,-9.9,14.5
 2004/04/07, 6:30,-9.9,-9.9,-9.9,14.5
 2004/04/07, 6:45,-9.9,-9.9,-9.9,14.5
 2004/04/07, 7:00,-9.9,-9.9,-9.9,14.6
 2004/04/07, 7:15,-9.9,-9.9,-9.9,14.6
 2004/04/07, 7:30,-9.9,-9.9,-9.9,14.6
 2004/04/07, 7:45,-9.9,-9.9,-9.9,14.7
 2004/04/07, 8:00,-9.9,-9.9,-9.9,14.7
 2004/04/07, 8:15,-9.9,-9.9,-9.9,14.8
 2004/04/07, 8:30,-9.9,-9.9,-9.9,14.8
 2004/04/07, 8:45,-9.9,-9.9,-9.9,14.9
 2004/04/07, 9:00,-9.9,-9.9,-9.9,14.9
 2004/04/07, 9:15,-9.9,-9.9,-9.9,15
 2004/04/07, 9:30,-9.9,-9.9,-9.9,15
 2004/04/07, 9:45,-9.9,-9.9,-9.9,13.9
 2004/04/07,10:00,-9.9,-9.9,-9.9,14
 2004/04/07,10:15,-9.9,-9.9,-9.9,14.1
 2004/04/07,10:30,-9.9,-9.9,-9.9,14.1
 2004/04/07,10:45,-9.9,-9.9,-9.9,14.2
 2004/04/07,11:00,-9.9,-9.9,-9.9,14.3
 2004/04/07,11:15,-9.9,-9.9,-9.9,14.4
 2004/04/07,11:30,-9.9,-9.9,-9.9,14.5
 2004/04/07,11:45,-9.9,-9.9,-9.9,14.6
 2004/04/07,12:00,-9.9,-9.9,-9.9,14.7
 2004/04/07,12:15,-9.9,-9.9,-9.9,14.8
 2004/04/07,12:30,-9.9,-9.9,-9.9,14.9
 2004/04/07,12:45,-9.9,-9.9,-9.9,15
 2004/04/07,13:00,-9.9,-9.9,-9.9,14.9
 2004/04/07,13:15,-9.9,-9.9,-9.9,14.9
 2004/04/07,13:30,-9.9,-9.9,-9.9,15
 2004/04/07,13:45,-9.9,-9.9,-9.9,15.1
 2004/04/07,14:00,-9.9,-9.9,-9.9,15.2